Le nostre stazioni meteo in Italia

Pubblicità
Il mio iltempo24.it
Parma, Italia (16086): Temperatura & dewpoint: 09.09.2019 21:00:00 - 15.09.2019 21:00:00 (CEST)Parma, Italia (16086): velocità del vento: 09.09.2019 21:00:00 - 15.09.2019 21:00:00 (CEST)Parma, Italia (16086): direzione del vento: 09.09.2019 21:00:00 - 15.09.2019 21:00:00 (CEST)Parma, Italia (16086): reduced air pressure: 09.09.2019 21:00:00 - 15.09.2019 21:00:00 (CEST)Parma, Italia (16086): precipitazioni: 09.09.2019 21:00:00 - 15.09.2019 21:00:00 (CEST)
Data & Tempo tt [°C] td [°C] ff [km/h] ff [kn] dd ppp [hPa] rr [mm]
15.09.2019 21:00:00 - - - - - - -
15.09.2019 20:00:00 26,4 13,5 4 2 E 1021,5 0,0
15.09.2019 19:00:00 27,7 12,5 4 2 E 1021,6 0,0
15.09.2019 18:00:00 28,3 12,6 4 2 ENE 1021,8 0,0
15.09.2019 17:00:00 28,5 12,8 6 3 NE 1022,2 0,0
15.09.2019 16:00:00 28,6 12,5 9 5 E 1022,7 0,0
15.09.2019 15:00:00 28,4 12,3 5 3 NE 1023,7 0,0
15.09.2019 14:00:00 27,3 13,3 5 3 N 1024,6 0,0
15.09.2019 13:00:00 26,0 13,1 5 3 N 1025,2 0,0
15.09.2019 12:00:00 24,5 14,9 3 2 NO 1026,2 0,0
15.09.2019 11:00:00 22,3 14,4 4 2 O 1026,7 0,0
15.09.2019 10:00:00 21,1 14,0 3 2 OSO 1026,7 0,0
15.09.2019 09:00:00 19,6 13,8 5 3 SSO 1026,8 0,0
15.09.2019 08:00:00 18,5 13,6 6 3 SO 1026,4 0,0
15.09.2019 07:00:00 18,4 13,5 4 2 OSO 1026,5 0,0
15.09.2019 06:00:00 18,5 13,6 8 4 SO 1026,3 0,0
15.09.2019 05:00:00 18,8 13,9 5 3 SO 1026,2 0,0
15.09.2019 04:00:00 19,4 14,0 9 5 SO 1026,4 0,0
15.09.2019 03:00:00 19,8 13,9 4 2 OSO 1026,8 0,0
15.09.2019 02:00:00 20,4 14,1 4 2 SO 1026,6 0,0
15.09.2019 01:00:00 21,1 14,3 - - - 1026,5 0,0
15.09.2019 00:00:00 22,0 14,4 4 2 S 1027,1 0,0
14.09.2019 23:00:00 22,6 14,4 6 3 E 1027,2 0,0
14.09.2019 22:00:00 23,8 14,5 6 3 ESE 1027,2 0,0
14.09.2019 21:00:00 24,9 14,4 5 3 ENE 1026,8 0,0
14.09.2019 20:00:00 25,9 14,0 5 3 ENE 1026,2 0,0
14.09.2019 19:00:00 27,1 13,4 9 5 E 1025,9 0,0
14.09.2019 18:00:00 27,9 12,7 11 6 ENE 1026,0 0,0
14.09.2019 17:00:00 28,3 12,2 11 6 ENE 1026,1 0,0
14.09.2019 16:00:00 28,3 12,6 11 6 ENE 1026,8 0,0
14.09.2019 15:00:00 28,3 12,6 10 5 ENE 1027,7 0,0
14.09.2019 14:00:00 27,4 12,6 11 6 ENE 1028,2 0,0
14.09.2019 13:00:00 26,5 13,6 8 4 ENE 1028,7 0,0
14.09.2019 12:00:00 24,7 14,8 3 2 NE 1029,3 0,0
14.09.2019 11:00:00 23,0 14,3 4 2 N 1029,7 0,0
14.09.2019 10:00:00 21,3 13,7 5 3 ONO 1029,8 0,0
14.09.2019 09:00:00 20,0 13,2 5 3 O 1029,6 0,0
14.09.2019 08:00:00 18,0 12,9 6 3 OSO 1029,3 0,0
14.09.2019 07:00:00 18,0 12,9 8 4 SO 1028,6 0,0
14.09.2019 06:00:00 18,2 13,3 7 4 SO 1028,5 0,0
14.09.2019 05:00:00 18,4 13,3 8 5 SO 1028,4 0,0
14.09.2019 04:00:00 19,1 13,5 5 3 OSO 1028,4 0,0
14.09.2019 03:00:00 19,6 13,5 5 3 SO 1028,5 0,0
14.09.2019 02:00:00 20,0 13,5 6 4 SO 1028,8 0,0
14.09.2019 01:00:00 20,7 13,6 5 3 S 1028,7 0,0
14.09.2019 00:00:00 21,5 14,2 4 2 S 1028,9 0,0
13.09.2019 23:00:00 21,9 14,0 5 3 SO 1029,0 0,0
13.09.2019 22:00:00 23,8 13,6 2 1 S 1028,3 0,0
13.09.2019 21:00:00 25,2 13,4 3 2 E 1028,1 0,0
13.09.2019 20:00:00 26,2 13,0 4 2 ENE 1028,0 0,0
13.09.2019 19:00:00 27,4 12,2 8 5 E 1027,6 0,0
13.09.2019 18:00:00 28,3 10,9 10 5 E 1027,7 0,0
13.09.2019 17:00:00 28,5 10,7 10 5 NE 1027,9 0,0
13.09.2019 16:00:00 28,5 10,7 10 5 E 1028,5 0,0
13.09.2019 15:00:00 28,3 10,0 8 5 ENE 1029,0 0,0
13.09.2019 14:00:00 27,7 10,4 8 5 E 1029,5 0,0
13.09.2019 13:00:00 26,5 11,4 9 5 E 1030,0 0,0
13.09.2019 12:00:00 25,1 12,3 8 4 NE 1030,6 0,0
13.09.2019 11:00:00 23,3 12,6 5 3 NNE 1031,4 0,0
13.09.2019 10:00:00 21,4 12,5 3 2 OSO 1031,4 0,0
13.09.2019 09:00:00 19,1 12,4 4 2 SO 1031,1 0,0
13.09.2019 08:00:00 17,8 12,0 4 2 OSO 1031,1 0,0
13.09.2019 07:00:00 17,5 11,7 6 4 SO 1030,9 0,0
13.09.2019 06:00:00 17,9 12,8 1 0 NNE 1030,3 0,0
13.09.2019 05:00:00 18,0 12,7 - - - 1030,0 0,0
13.09.2019 04:00:00 18,6 12,6 3 1 ONO 1029,8 0,0
13.09.2019 03:00:00 19,2 12,2 5 3 S 1029,4 0,0
13.09.2019 02:00:00 19,7 12,5 2 1 SSO 1029,4 0,0
13.09.2019 01:00:00 20,3 12,5 8 4 S 1029,4 0,0
13.09.2019 00:00:00 20,8 12,7 8 4 S 1029,2 0,0
12.09.2019 23:00:00 21,4 13,1 10 6 S 1029,3 0,0
12.09.2019 22:00:00 23,0 13,2 5 3 S 1029,2 0,0
12.09.2019 21:00:00 24,6 11,9 5 3 E 1028,7 0,0
12.09.2019 20:00:00 25,5 11,6 6 3 E 1028,4 0,0
12.09.2019 19:00:00 27,0 10,2 6 3 E 1028,1 0,0
12.09.2019 18:00:00 27,7 10,0 8 4 E 1027,9 0,0
12.09.2019 17:00:00 28,6 9,8 7 4 ENE 1028,1 0,0
12.09.2019 16:00:00 28,0 9,8 6 4 E 1028,4 0,0
12.09.2019 15:00:00 27,6 10,3 4 2 E 1028,7 0,0
12.09.2019 14:00:00 27,2 11,2 5 3 E 1029,0 0,0
12.09.2019 13:00:00 25,9 12,0 4 2 NNE 1029,5 0,0
12.09.2019 12:00:00 24,7 13,3 6 3 N 1029,4 0,0
12.09.2019 11:00:00 23,2 12,5 5 3 NNE 1029,3 0,0
12.09.2019 10:00:00 21,6 12,4 4 2 O 1028,8 0,0
12.09.2019 09:00:00 19,1 12,1 5 3 SSO 1028,3 0,0
12.09.2019 08:00:00 17,3 11,8 8 4 SO 1027,8 0,0
12.09.2019 07:00:00 16,9 11,8 7 4 SO 1026,9 0,0
12.09.2019 06:00:00 16,9 11,8 8 5 SO 1026,3 0,0
12.09.2019 05:00:00 17,3 12,0 6 4 OSO 1025,9 0,0
12.09.2019 04:00:00 17,7 12,2 2 1 O 1025,6 0,0
12.09.2019 03:00:00 18,0 12,0 6 3 SSO 1025,1 0,0
12.09.2019 02:00:00 18,3 12,1 6 4 SSO 1024,9 0,0
12.09.2019 01:00:00 19,0 12,0 7 4 SSO 1024,7 0,0
12.09.2019 00:00:00 19,5 12,3 - - - 1024,5 -
11.09.2019 23:00:00 20,2 12,9 8 4 SO 1024,2 0,0
11.09.2019 22:00:00 22,4 12,1 3 1 S 1023,4 0,0
11.09.2019 21:00:00 23,1 11,5 - - - 1022,8 -
11.09.2019 20:00:00 24,1 10,7 3 2 ENE 1021,9 0,0
11.09.2019 19:00:00 25,3 10,3 6 3 E 1021,2 0,0
11.09.2019 18:00:00 26,4 9,7 5 3 NE 1021,2 0,0
11.09.2019 17:00:00 26,5 9,8 6 3 N 1021,0 0,0
11.09.2019 16:00:00 26,1 10,3 7 4 E 1021,0 0,0
11.09.2019 15:00:00 25,8 10,8 5 3 NE 1021,3 0,0
11.09.2019 14:00:00 25,1 10,2 7 4 S 1021,7 0,0
11.09.2019 13:00:00 24,7 12,3 4 2 S 1021,8 0,0
11.09.2019 12:00:00 22,6 13,6 4 2 SSO 1022,1 0,0
11.09.2019 11:00:00 20,6 13,3 6 3 N 1022,8 0,0
11.09.2019 10:00:00 19,7 13,6 8 5 NO 1022,6 0,0
11.09.2019 09:00:00 18,9 13,7 4 2 O 1021,8 0,0
11.09.2019 08:00:00 17,2 14,3 5 3 OSO 1021,6 0,0
11.09.2019 07:00:00 16,7 14,3 3 2 O 1021,3 0,0
11.09.2019 06:00:00 16,8 14,8 3 2 O 1020,9 0,0
11.09.2019 05:00:00 16,8 15,0 4 2 SO 1020,8 0,0
11.09.2019 04:00:00 16,9 14,7 5 3 OSO 1020,6 0,0
11.09.2019 03:00:00 17,2 14,8 5 3 O 1020,6 0,0
11.09.2019 02:00:00 17,4 15,4 6 3 O 1020,5 0,0
11.09.2019 01:00:00 17,6 15,8 4 2 O 1020,6 0,0
11.09.2019 00:00:00 17,5 15,7 5 3 O 1020,3 0,0
10.09.2019 23:00:00 18,0 15,8 7 4 O 1020,0 0,0
10.09.2019 22:00:00 18,9 15,9 5 3 O 1019,5 0,0
10.09.2019 21:00:00 20,5 13,9 6 3 ONO 1018,9 0,0
10.09.2019 20:00:00 21,2 14,1 6 4 ENE 1017,9 0,0
10.09.2019 19:00:00 22,0 14,4 10 5 ENE 1017,1 0,0
10.09.2019 18:00:00 23,0 14,6 12 7 NE 1016,6 0,0
10.09.2019 17:00:00 24,2 7,8 7 4 ENE 1016,2 0,0
10.09.2019 16:00:00 24,8 9,1 12 7 E 1015,9 0,0
10.09.2019 15:00:00 23,8 8,6 7 4 NNE 1016,3 0,0
10.09.2019 14:00:00 22,9 7,8 7 4 ENE 1016,6 0,0
10.09.2019 13:00:00 22,8 10,6 6 4 ENE 1017,0 0,0
10.09.2019 12:00:00 20,9 13,1 10 6 ENE 1017,0 0,0
10.09.2019 11:00:00 19,5 13,2 9 5 ENE 1017,4 0,0
10.09.2019 10:00:00 17,8 13,3 9 5 ENE 1017,3 0,0
10.09.2019 09:00:00 16,7 13,4 7 4 NE 1017,1 0,0
10.09.2019 08:00:00 15,9 13,0 8 4 ENE 1016,6 0,0
10.09.2019 07:00:00 14,8 12,5 5 3 E 1016,7 0,0
10.09.2019 06:00:00 14,2 11,7 5 3 E 1015,9 0,0
10.09.2019 05:00:00 14,6 10,8 4 2 SE 1016,0 0,0
10.09.2019 04:00:00 14,8 9,6 2 1 NNE 1015,8 0,0
10.09.2019 03:00:00 15,6 9,0 1 1 E 1015,7 0,0
10.09.2019 02:00:00 15,6 8,6 4 2 NNE 1016,1 0,0
10.09.2019 01:00:00 16,0 7,2 5 3 SSO 1015,9 0,0
10.09.2019 00:00:00 17,5 8,4 7 4 SO 1015,3 0,0
09.09.2019 23:00:00 17,9 9,3 4 2 S 1015,3 0,0
09.09.2019 22:00:00 19,4 8,7 5 3 SSE 1015,2 0,0
09.09.2019 21:00:00 20,6 8,6 7 4 SSO 1014,8 0,0

tt = Temperatura
td = dewpoint
ff = velocità del vento
dd = direzione del vento
ppp = reduced air pressure
rr = precipitazioni

Stazioni seguenti

WeatherPro
AMSI
MeteoEarth